Theta_e
322 323 323 325 325 326 327 327 327 326 326 327 327 327 327 327 324 311 306 312 316 329 326 311 310 310 312 310 310 308 303 300 299 298 301 301 301 301 300 301 301 303 302 301 305
322 322 323 323 324 325 326 326 326 326 326 326 326 326 327 325 312 307 317 324 329 328 310 309 308 309 309 307 307 306 302 300 303 302 302 302 302 303 300 300 300 300 301 298 301
320 321 321 322 323 324 324 325 326 326 325 325 325 325 325 322 310 309 322 327 328 324 311 309 309 308 306 307 305 303 301 302 302 302 302 302 300 303 301 300 304 303 304 299 300
318 318 320 321 322 323 324 324 325 325 325 324 325 324 323 315 301 310 324 322 322 314 309 307 307 306 305 303 304 301 301 302 303 303 301 301 301 300 301 305 304 306 304 300 299
316 316 317 319 321 322 323 323 324 324 324 324 325 324 317 308 309 312 320 316 311 309 307 306 307 305 304 302 302 301 301 302 303 302 302 299 300 301 300 305 304 300 299 299 299
316 316 316 317 319 321 322 322 323 324 323 323 325 323 311 302 311 310 308 308 308 308 306 306 306 305 303 303 302 301 301 302 302 302 301 299 301 298 303 302 302 298 299 300 300
316 315 315 316 318 319 320 322 323 322 322 323 324 316 308 306 312 310 308 307 307 307 306 306 307 305 305 300 301 300 299 302 301 300 300 300 298 298 305 297 299 297 299 299 299
315 315 315 315 317 318 320 321 321 321 322 323 323 313 306 310 313 307 308 306 307 307 307 307 307 305 302 302 300 298 297 297 299 299 298 299 296 303 305 298 300 300 299 297 298
315 314 315 316 316 317 319 320 320 321 324 323 315 310 304 313 308 309 307 305 306 306 307 306 307 303 302 300 299 298 296 296 297 299 297 298 298 301 300 297 299 302 300 297 297
315 314 314 315 316 317 319 320 318 319 318 312 309 306 306 304 308 307 306 306 304 306 305 305 304 302 300 299 292 296 295 296 295 297 295 296 296 300 302 297 299 302 302 299 296
315 314 314 314 316 318 316 309 305 303 306 305 304 303 302 307 308 305 304 305 305 302 299 301 299 297 300 301 300 297 295 295 299 295 294 295 295 297 301 300 300 300 302 300 297
315 314 314 314 315 317 309 305 304 303 298 303 301 300 303 308 302 304 304 301 300 297 299 298 295 301 298 297 296 295 295 296 298 293 292 294 292 296 298 299 300 301 302 302 298
316 315 314 314 315 310 304 304 308 307 300 300 301 301 302 305 302 302 302 301 299 296 297 296 298 296 296 295 293 294 294 296 293 292 291 289 291 292 295 296 297 299 300 301 298
316 315 315 314 309 308 304 305 308 306 293 293 295 300 303 303 297 299 300 300 297 296 295 296 298 296 295 295 295 293 296 294 291 290 289 290 286 294 295 294 295 300 300 298 297
316 315 315 314 309 305 303 306 306 299 283 294 294 302 301 298 297 296 299 298 296 294 296 295 292 292 293 295 295 294 291 291 289 289 286 290 285 291 288 290 295 299 301 299 298
316 315 314 310 309 306 305 304 302 289 280 290 296 295 296 297 295 295 296 298 298 295 295 295 294 294 296 289 291 290 290 289 286 287 283 290 287 290 290 292 295 298 299 297 296
315 315 312 310 306 305 304 302 289 282 289 289 293 294 294 293 294 293 292 292 292 289 290 293 293 292 292 292 291 290 291 288 287 284 285 286 284 288 293 294 296 299 300 296 296
315 315 312 310 308 306 301 295 282 289 289 292 293 292 292 293 294 292 290 291 293 291 289 289 288 289 293 295 295 289 292 289 283 284 286 282 282 290 294 297 297 294 295 293 293
315 312 309 311 306 305 296 286 287 290 292 290 291 290 290 292 293 291 292 292 295 293 290 288 290 289 289 291 294 288 287 292 289 278 281 288 292 293 292 292 292 292 293 294 294
312 308 307 311 306 301 291 288 291 294 291 293 288 291 288 291 288 290 291 294 294 294 298 294 288 289 286 288 287 288 291 285 287 282 281 286 288 289 291 291 292 291 292 295 294
311 301 308 307 306 297 287 289 292 294 293 291 291 290 290 290 291 290 291 294 295 293 294 293 291 287 287 286 288 284 286 285 285 286 283 282 286 291 291 293 292 294 296 297 296
307 297 306 307 294 294 289 293 293 292 293 293 292 291 291 290 288 290 290 292 297 294 289 294 291 287 290 286 287 290 290 289 285 284 284 285 286 294 294 294 294 295 294 295 295
302 300 304 306 291 289 293 293 294 293 292 292 291 292 292 289 285 290 291 295 295 294 291 291 287 285 287 284 284 285 286 288 290 289 285 283 285 295 295 293 292 293 295 293 293
303 292 294 297 299 294 292 293 291 295 294 291 290 291 289 289 291 288 290 292 294 294 295 295 288 287 284 287 287 285 286 286 287 284 285 285 288 292 294 294 296 297 294 293 295
304 295 293 285 289 293 295 294 292 290 293 294 290 290 290 287 288 287 291 292 289 291 291 291 286 288 290 292 291 289 288 286 284 286 284 287 288 292 294 295 296 297 297 296 296
298 296 294 293 293 291 291 291 292 294 295 291 289 293 291 287 290 290 291 290 289 288 290 289 285 287 285 289 288 286 288 289 288 288 287 287 286 293 294 295 294 295 295 294 294
301 303 298 292 291 289 289 290 291 295 296 297 295 292 291 292 294 295 296 295 293 291 289 286 285 284 281 287 286 281 285 287 288 290 290 285 290 295 294 294 294 295 295 293 294
Wind_Speed
18 18 18 19 19 19 19 19 17 13 11 12 11 8 7 7 3 4 5 2 3 1 2 3 3 4 2 3 1 1 4 4 3 6 2 7 9 5 1 4 5 8 4 3 15
18 18 18 18 18 18 18 18 18 17 13 10 12 8 7 6 3 7 4 4 1 2 4 6 4 6 3 2 1 4 3 3 1 3 3 6 9 7 6 8 8 8 9 5 19
18 18 19 19 19 18 18 17 16 17 16 12 10 8 6 2 3 3 6 2 1 3 1 0 3 3 3 2 2 1 4 1 3 5 4 5 6 5 7 11 13 15 14 15 21
16 17 18 19 19 19 18 17 16 15 16 15 11 7 7 3 5 3 3 4 5 7 5 3 3 4 3 4 2 4 4 3 1 4 5 5 4 6 14 17 2 8 6 19 23
15 17 18 19 19 20 20 18 15 15 15 15 10 5 2 4 8 4 2 2 5 4 3 3 3 3 4 3 2 5 3 4 4 4 6 3 9 9 15 17 9 3 9 18 20
14 16 18 19 20 21 22 21 18 15 15 13 8 3 3 7 3 2 3 3 2 4 3 3 3 2 2 3 5 1 4 6 5 6 5 7 5 3 4 4 12 11 14 16 21
14 16 16 18 19 21 22 23 21 17 16 11 4 3 3 10 2 4 4 2 1 2 4 2 4 2 4 2 1 1 7 7 10 5 5 5 9 13 16 7 10 14 15 17 19
14 15 17 18 18 20 22 24 22 20 9 3 5 3 7 2 3 3 5 4 3 5 4 4 2 5 1 3 2 3 3 5 5 8 2 5 15 12 5 10 15 15 14 16 21
13 15 17 16 18 20 22 26 20 8 1 4 4 3 6 3 3 3 2 5 5 3 5 3 2 2 4 4 5 5 10 9 5 10 4 11 15 3 5 9 15 16 16 16 18
12 14 17 17 18 20 26 23 4 3 1 2 1 3 4 3 3 4 2 7 3 5 4 2 2 4 4 7 12 11 8 8 11 5 9 10 21 22 18 14 24 23 19 18 18
10 13 16 17 18 19 15 5 3 3 2 6 2 3 1 3 1 2 2 6 4 3 7 2 7 17 17 17 13 7 8 16 15 4 6 17 20 25 23 20 25 24 21 18 21
8 10 13 16 18 20 4 2 3 3 9 4 6 8 3 3 2 6 7 9 8 11 7 4 16 18 1 6 9 9 13 20 13 2 7 14 22 23 23 26 25 26 24 18 17
9 9 10 12 15 5 3 2 1 1 6 6 6 5 3 9 7 6 14 5 7 9 14 16 12 3 9 8 10 11 17 15 11 5 7 11 18 8 7 14 17 23 22 15 16
10 9 8 11 2 4 0 2 1 2 7 6 5 3 2 3 4 2 3 2 4 11 9 11 5 10 7 11 13 14 10 11 8 5 13 3 23 13 11 11 12 21 11 12 15
11 9 6 2 5 2 1 3 2 3 12 1 3 2 2 4 4 1 1 1 8 8 7 6 6 8 10 10 12 5 3 5 3 8 6 12 13 9 2 6 18 19 12 13 13
13 10 7 3 1 0 1 1 3 4 12 3 3 4 4 2 1 3 2 1 2 4 5 7 1 5 3 3 0 8 3 2 2 4 12 18 17 3 5 8 9 11 10 9 11
13 11 7 3 1 4 3 3 5 12 3 7 7 6 3 6 6 7 7 9 9 6 11 4 11 4 4 5 3 5 4 7 8 7 15 3 9 17 12 11 13 17 7 6 8
17 14 8 3 5 5 2 5 18 9 17 3 4 6 10 13 8 10 7 9 12 5 2 6 13 14 12 17 6 11 8 7 14 15 23 8 14 13 11 15 16 7 7 3 7
15 7 5 8 7 3 4 12 15 11 8 8 3 6 9 5 5 8 14 10 12 21 15 9 15 3 2 2 5 9 10 2 5 3 11 12 23 8 7 12 8 14 11 15 12
6 6 9 15 12 5 6 27 13 12 9 7 20 17 20 15 10 12 12 8 9 16 20 3 11 4 3 1 0 5 6 5 4 7 19 26 32 18 11 15 9 10 15 15 10
8 4 8 15 8 6 13 17 11 10 8 13 21 16 15 16 15 13 16 7 9 7 8 4 7 4 5 13 16 7 7 5 3 6 10 21 18 4 6 6 11 14 15 9 12
4 6 10 15 9 5 12 12 5 8 5 11 4 12 23 16 14 14 19 16 14 11 13 9 4 13 23 3 3 9 16 19 11 11 12 13 38 4 7 5 7 8 5 8 9
4 2 3 9 12 14 12 11 10 12 13 13 16 13 10 16 12 16 20 10 12 13 13 11 6 7 13 6 2 9 9 12 17 16 33 13 35 10 10 3 6 9 10 8 11
3 3 2 4 5 18 20 22 17 11 16 6 6 5 3 11 14 14 18 5 5 7 1 11 5 14 22 21 2 7 13 20 24 20 21 27 31 42 30 24 23 21 13 14 16
5 4 7 8 12 15 17 6 22 15 12 11 7 21 22 19 23 20 25 20 5 4 2 7 14 15 21 28 23 24 18 19 30 29 27 30 26 36 31 23 27 22 17 21 20
6 3 5 6 15 24 22 18 28 28 19 15 19 22 27 27 23 20 23 21 16 4 9 5 19 18 27 30 30 32 22 32 30 33 25 24 30 30 36 31 29 38 23 27 25
5 5 6 11 13 16 23 27 30 27 24 28 28 21 22 27 30 33 24 13 9 16 16 10 9 10 21 24 20 15 36 32 40 35 29 31 35 33 34 32 32 35 23 23 25
Wind_Direction
18 17 12 10 6 3 1 357 355 0 358 347 346 333 326 332 314 178 235 143 155 125 160 142 145 148 168 112 74 239 229 231 216 192 150 157 200 157 134 189 209 198 237 75 156
12 9 9 7 4 359 356 352 346 344 348 350 338 329 327 341 241 237 134 135 177 175 199 194 168 165 161 121 134 238 259 237 190 187 222 189 219 182 199 196 221 221 208 162 163
8 5 3 2 358 356 352 347 341 336 333 340 337 324 318 298 268 215 140 119 145 187 292 28 127 196 180 184 164 177 266 163 219 226 216 209 220 193 229 230 231 217 204 180 181
2 360 358 356 353 350 348 343 336 330 325 327 331 322 314 222 246 153 148 132 138 149 157 175 180 184 194 205 164 241 240 230 204 187 183 213 142 215 225 246 354 256 209 180 188
357 353 350 350 347 344 340 337 332 324 317 318 317 314 253 228 254 142 142 144 139 157 158 187 203 170 223 193 194 231 211 220 246 225 230 169 233 250 243 244 224 220 190 193 198
350 347 345 343 340 339 334 329 326 320 309 309 299 275 193 243 93 99 143 103 119 167 150 182 179 179 150 203 228 167 261 261 262 243 232 233 237 225 238 229 218 215 214 208 208
340 340 339 337 336 333 329 323 321 316 307 297 240 227 216 262 101 76 114 75 15 204 147 117 127 192 147 202 79 326 289 273 223 219 236 212 251 232 248 187 215 219 223 217 216
332 333 334 334 329 328 324 318 317 313 301 253 172 198 252 66 129 130 139 94 70 38 72 102 108 96 274 127 149 242 250 257 150 173 165 215 273 244 249 218 237 230 223 217 216
325 328 330 331 329 326 321 313 312 307 80 152 179 215 260 135 185 134 196 140 102 67 69 96 65 83 167 226 252 212 273 233 271 204 142 213 273 247 204 233 254 246 231 222 219
317 323 327 329 328 327 324 308 273 295 172 220 88 229 166 211 143 136 101 147 131 130 134 177 147 228 200 204 258 265 245 250 261 180 214 224 256 275 265 241 258 264 252 238 220
304 318 325 327 324 327 338 336 277 203 203 223 193 269 195 103 150 186 159 137 126 200 214 127 226 238 244 228 269 269 260 262 269 198 240 252 255 266 276 271 257 264 259 243 230
283 308 319 324 319 323 292 329 49 10 297 239 250 273 221 189 211 199 172 185 182 219 148 179 238 251 255 222 226 234 261 264 281 233 218 271 270 270 264 263 266 270 265 251 237
256 280 307 314 318 324 347 88 320 252 251 279 218 236 209 175 222 207 180 163 197 203 205 229 258 101 195 206 204 228 235 255 263 322 229 289 269 237 257 255 269 260 259 254 227
240 258 284 316 247 347 42 355 277 275 257 235 221 220 135 186 240 58 222 197 204 235 191 242 255 222 203 229 204 240 229 244 259 288 277 1 288 280 257 249 255 272 245 229 217
236 240 263 53 321 216 59 323 283 235 276 50 173 27 110 213 97 86 29 150 213 181 179 228 186 195 212 231 179 247 119 179 205 249 313 248 268 275 133 246 259 258 264 226 210
236 225 169 130 193 104 214 208 231 221 242 245 158 179 166 197 150 124 150 40 26 172 240 258 135 223 212 75 106 133 119 154 157 252 250 253 229 257 196 209 251 263 244 199 196
218 212 188 176 192 141 160 207 227 234 51 197 194 187 198 188 194 186 169 181 191 178 215 200 221 171 179 147 127 199 180 279 255 226 264 150 237 265 278 234 232 252 261 176 178
209 173 205 215 156 148 160 173 238 186 208 96 155 155 197 165 208 182 170 215 231 216 182 220 252 183 182 219 214 185 221 203 265 280 288 110 250 274 225 248 251 278 272 219 216
192 190 177 194 165 142 198 213 232 211 188 179 83 208 216 229 216 178 210 218 207 191 207 197 253 98 237 139 181 158 198 237 285 113 282 250 259 228 187 247 244 252 247 246 235
199 198 207 161 164 146 197 238 231 199 150 184 220 197 232 216 187 192 191 189 228 199 225 260 263 109 110 169 73 227 137 142 194 264 261 276 282 275 231 240 212 239 236 243 230
216 213 147 152 168 182 210 232 248 233 198 198 231 240 236 232 214 219 240 210 197 198 204 194 209 199 151 201 190 166 206 228 312 233 260 273 272 114 160 168 200 223 230 238 226
212 224 154 148 181 225 226 227 194 234 242 257 264 261 246 231 237 238 244 225 177 159 170 207 203 231 235 129 301 254 233 216 223 221 235 259 273 87 78 152 187 211 247 240 237
229 184 175 195 196 208 220 239 251 232 217 215 230 222 220 238 238 239 248 228 169 172 174 170 213 239 254 214 200 215 210 228 240 256 249 231 259 196 279 259 222 250 242 238 237
245 160 222 215 264 215 213 225 232 214 242 225 255 241 227 246 240 248 247 207 193 203 95 171 164 219 237 250 97 194 224 219 222 233 254 239 260 277 271 276 281 272 252 236 237
224 209 175 182 235 230 227 213 235 238 211 209 240 224 228 242 250 246 258 248 177 171 99 170 229 243 253 263 271 280 272 245 236 239 242 257 262 264 280 276 275 278 278 275 266
266 191 185 185 216 217 227 220 231 240 226 221 221 225 230 233 235 254 236 246 229 203 203 192 241 240 244 254 259 259 255 255 258 253 253 259 267 268 270 282 281 273 268 271 271
328 305 250 182 195 207 223 224 227 236 241 237 228 228 236 228 223 241 255 261 196 227 219 200 211 206 240 234 244 246 238 248 257 262 258 257 254 270 271 266 264 273 278 265 263